Showing default

HXMT, 42758

Orbit data source: Space-Track

HXMT, 42758 is a payload satellite owned by CNSA (CN) in LEO that was launched on Thu, 15 Jun 2017 UTC via a CHANG ZHENG 4B launch vehicle from the Jiuquan Satellite Launch Center, China (JSC). Payload-class satellites include a variety of spacecraft equipped with specific instruments for various scientific and technological missions. These include communications satellites like Starlink; space stations such as the ISS; scientific satellites like the Hubble; Earth observation satellites from companies like Planet Labs, Umbra, and HawkEye 360; GPS; miniature CubeSats for education and research; and military/defense satellites.

Loading next visibility...
Identifier
42758, 2017-034A
Orbit
LEO
Last TLE update
9 hours ago
Origin
Manufacturer
CAST
Mission
Operational Civil Astronomy
Bus & Motor
ZY, Unknown motor
Mass
3,000 kg wet, ~2,900 kg dry
Launch date (UTC)
2017-06-15 (8 years ago)
Launch vehicle
CHANG ZHENG 4B
Launch site
Jiuquan Satellite Launch Center, China (JSC)
Object type
Payload
Rocket body
Debris
Shape & HBR
Box + 2 Pan, 10 m
Radar Cross Section
10.304 m², Large (>1 m²)

Expand to show TLE details & history

TLE from 9 hours ago
0 HXMT
1 42758U 17034A   25183.74317373  .00004457  00000-0  25066-3 0  9997
2 42758  43.0155 322.3634 0033324  98.0770 262.3859 15.13983864444639
Epoch: 2025-07-02T17:50Z
TLE epoch observation values (Epoch: 2025-07-02T17:50:10.21Z)
Latitude
-0.00005°
Longitude
133.80091°
Altitude
526.966 km
Speed
7.6 km/s
True Right ascension
21h 29m 27s
True Declination
0° 00' 00"
Sunlit
Object was in full shadow at epoch
Visualization orbit readout
Latitude
-22.63981°
Longitude
105.25023°
Altitude
545.492 km
Speed
7.581 km/s
Apparent Right ascension
22h 32m 45s
Apparent Declination
-45° 38' 42"
Sunlit
Object is in full shadow
Visualization observer readout
Local Sidereal Time
14:56:17
Azimuth
119.778° SE
Elevation
-42.68°
Doppler factor
1
Orbital elements
Apogee altitude
549.004 km
Perigee altitude
502.989 km
Semi-major axis
6,904.133 km
Eccentricity
0.00333
Inclination
43.0155°
RAAN
322.3634°
Arg. of periapsis
98.077°
True anomaly
Unknown
Mean anomaly
262.3859°
Eccentric anomaly
Unknown
Mean motion
3.78338 °/min
Orbital period
95.15 mins
BSTAR
0.00025066
Loading maneuver chart data...
Loading SW <> Apogee altitude chart data...
Loading historical data...
Loading historical data...
Loading historical data...
Loading historical data...
Loading historical data...
Loading historical data...
Loading historical data...

HXMT Visibility forecast

Observer location: undefined°, undefined°

Span
Click to sort rows by Start time (UTC) header in descending order
Start Az.
Max El. time (UTC)
Max El. Az.
Max El.
End time (UTC)
End Az.
5 mins2025-07-03 13:05:08.539Z229.598° WSW2025-07-03 13:07:08.539Z153.641° SSE41.762°2025-07-03 13:10:08.539Z77.258° E
5 mins2025-07-03 14:45:08.539Z285.192° WNW2025-07-03 14:47:08.539Z0.841° NNE39.499°2025-07-03 14:50:08.539Z70.269° E
5 mins2025-07-03 16:25:08.539Z296.114° NW2025-07-03 16:27:08.539Z9.61° NNE42.158°2025-07-03 16:30:08.539Z92.228° ESE
5 mins2025-07-03 18:05:08.539Z263.919° W2025-07-03 18:07:08.539Z199.157° SSW33.359°2025-07-03 18:10:08.539Z139.822° SSE
|